sat.trackr.live / text

‹ back to catalog

STARLINK-30225

NORAD 57449 · 2023-105V

PAYLOAD ACTIVE UNKNOWN

§ Identity

Operator
Country
US
Launch date
2023-07-24
Launch site
AFETR
Launch vehicle
Mass (kg)
RCS (m²)

Purposes: comms

External: N2YO · Heavens-Above · Gunter

§ Orbital elements

Epoch: 2026-05-25T04:39:40.917312Z

Period
94.27 min
Inclination
43.0036°
Eccentricity
0.0001680
Mean motion
15.27579784 rev/d
Perigee alt
481.9 km
Apogee alt
484.2 km
Semi-major
6,861.2 km
B*
8.6953e-5
RAAN
191.0668°
Arg perigee
272.3718°
Mean anomaly
87.6941°
Rev number
15,730

§ Raw data

STARLINK-302251 57449U 23105V   26145.19422358  .00002131  00000+0  86953-4 0  99932 57449  43.0036 191.0668 0001680 272.3718  87.6941 15.27579784157309

JSON: /api/v1/satellites/57449 · /tle

For live sub-satellite position, see the globe view (requires WebGL).

§ Visibility from observer

Set your observer location to see the next 7 days of passes ≥ 10°. The values pass through the URL so the page stays shareable.

No JS? Fill the form by hand. The geolocation button needs JavaScript.